Regional Weather Roundup
Issued by NWS

Home | Current Version | Previous Version | Graphics & Text | Print | Product List | Glossary On
Versions: 1 2 3 4 5 6 7 8 9 10 11 12 13 14 15 16 17 18 19 20 21 22 23 24 25 26 27 28 29 30 31 32 33 34 35 36 37 38 39 40 41 42 43 44 45 46 47 48 49 50
000
ASUS43 KTOP 162308
RWRKS

WEATHER ROUNDUP FOR KANSAS
NATIONAL WEATHER SERVICE GOODLAND KS
500 PM CST MON JAN 16 2017

NOTE:  "FAIR" INDICATES FEW OR NO CLOUDS BELOW 12,000 FEET WITH NO
SIGNIFICANT WEATHER AND/OR OBSTRUCTIONS TO VISIBILITY.

KSZ001>006-013>018-027>032-041>047-170000-
NORTHWEST KANSAS

CITY           SKY/WX    TMP DP  RH WIND       PRES   REMARKS
GOODLAND       CLOUDY    33  30  88 N17       30.00R WCI  22
HAYS           CLOUDY    33  31  92 N14       29.95R WCI  23
HILL CITY      CLOUDY    34  34 100 N12       29.98R FOG     WCI  25
RUSSELL        CLOUDY    33  32  96 NW12      29.92R WCI  24
$$

KSZ061>065-074>080-084>089-170000-
SOUTHWEST KANSAS

CITY           SKY/WX    TMP DP  RH WIND       PRES   REMARKS
DODGE CITY     CLOUDY    33  32  96 NW10      29.97R WCI  25
ELKHART          N/A     35  23  61 NW14        N/A  WCI  26
GARDEN CITY    CLOUDY    33  32  96 NW14      29.98R WCI  23
GREAT BEND     CLOUDY    33  31  92 NW14      29.93R WCI  23
LIBERAL        CLOUDY    37  34  87 NW14G20   30.00R WCI  29
PRATT          CLOUDY    32  30  92 NW12      29.95R WCI  23
$$

KSZ066>073-081>083-090>101-170000-
SOUTHEAST KANSAS

CITY           SKY/WX    TMP DP  RH WIND       PRES   REMARKS
CHANUTE        CLOUDY    40  37  89 SW12      29.94R WCI  33
HUTCHINSON     CLOUDY    35  32  88 NW9       29.92R
MEDICINE LODGE   N/A     36  31  82 NW10      29.96R WCI  28
NEWTON         CLOUDY    35  34  96 W13       29.91R WCI  26
PARSONS        CLOUDY    43  36  76 SW12G21   29.95R
WICHITA INTL   CLOUDY    38  35  89 W10       29.92R WCI  31
WICHITA JABRA  CLOUDY    37  35  92 W13       29.92R WCI  29
WICHITA MCCONL MOCLDY    37  34  87 W10       29.92R WCI  30
WINFIELD       CLOUDY    39  36  89 W12       29.95R WCI  32
$$

KSZ007>012-019>026-033>040-048>060-102>105-170000-
NORTHEAST KANSAS

CITY           SKY/WX    TMP DP  RH WIND       PRES   REMARKS
CONCORDIA      CLOUDY    32  32 100 N10       29.90R WCI  24
EMPORIA        CLOUDY    39  38  96 SW10      29.88R WCI  32
LAWRENCE       LGT RAIN  43  42  97 SW12      29.87R
MANHATTAN      CLOUDY    36  34  92 VRB5      29.88R FOG
MARYSVILLE     CLOUDY    32  32 100 N9        29.88R FOG
OLATHE IND     LGT RAIN  43  42  97 SW14      29.87R
OLATHE EXE     LGT RAIN  43  43 100 SW10      29.86R
SALINA           N/A    N/A N/A N/A MISG        N/A  FOG
TOPEKA BILLARD LGT RAIN  43  39  86 SW9       29.87R
TOPEKA FORBES  LGT RAIN  43  40  89 SW12      29.87R
$$




USA.gov is the U.S. government's official web portal to all federal, state and local government web resources and services.